FDX910 KMEM-KMIA

Flight info

Callsign FDX910
Flight time N/A
Altitude 35000
Route BBKNG7 KERMI MGMRY ACORI FROGZ5
Aircraft B77L/H-SDE2E3FGHIJ5LORVWXY/LB1D1

Departure

Time 2026-05-05 11:28
Airport Memphis International Airport (KMEM)

Arrival

Time N/A
Airport Miami International Airport (KMIA)
Time Latitude Longitude Altitude Speed Heading
2026-05-05 11:00 35.06023 -89.97274 350 ft 0 kts
2026-05-05 11:19 35.06020 -89.97274 350 ft 4 kts
2026-05-05 11:20 35.06003 -89.97272 350 ft 2 kts 347°
2026-05-05 11:20 35.05989 -89.97267 350 ft 2 kts 338°
2026-05-05 11:20 35.05976 -89.97260 350 ft 2 kts 329°
2026-05-05 11:20 35.05963 -89.97249 350 ft 2 kts 319°
2026-05-05 11:21 35.05953 -89.97237 350 ft 2 kts 310°
2026-05-05 11:21 35.05944 -89.97222 350 ft 2 kts 300°
2026-05-05 11:21 35.05937 -89.97206 350 ft 2 kts 290°
2026-05-05 11:21 35.05933 -89.97188 350 ft 2 kts 281°
2026-05-05 11:22 35.05931 -89.97170 350 ft 1 kts 271°
2026-05-05 11:22 35.05932 -89.97212 350 ft 4 kts 271°
2026-05-05 11:22 35.05933 -89.97231 350 ft 0 kts 271°
2026-05-05 11:25 35.05933 -89.97238 350 ft 2 kts 271°
2026-05-05 11:25 35.05934 -89.97278 350 ft 6 kts 267°
2026-05-05 11:25 35.05934 -89.97352 350 ft 10 kts 270°
2026-05-05 11:25 35.05925 -89.97454 350 ft 13 kts 244°
2026-05-05 11:26 35.05837 -89.97483 350 ft 15 kts 176°
2026-05-05 11:26 35.05720 -89.97478 350 ft 18 kts 179°
2026-05-05 11:26 35.05586 -89.97480 350 ft 20 kts 182°
2026-05-05 11:26 35.05459 -89.97552 350 ft 18 kts 225°
2026-05-05 11:27 35.05354 -89.97611 350 ft 18 kts 179°
2026-05-05 11:27 35.05012 -89.97604 350 ft 89 kts 179°
2026-05-05 11:27 35.04120 -89.97590 352 ft 165 kts 179°
2026-05-05 11:27 35.02817 -89.97549 759 ft 199 kts 178°
2026-05-05 11:28 35.01464 -89.97427 1891 ft 198 kts 180°
2026-05-05 11:28 35.00053 -89.97346 2578 ft 215 kts 182°
2026-05-05 11:28 34.98487 -89.97140 3151 ft 242 kts 169°
2026-05-05 11:28 34.96870 -89.96464 4054 ft 252 kts 164°
2026-05-05 11:29 34.95245 -89.95681 5043 ft 259 kts 157°
2026-05-05 11:29 34.93814 -89.94278 5872 ft 277 kts 131°
2026-05-05 11:29 34.92982 -89.92137 6766 ft 291 kts 104°
2026-05-05 11:29 34.92770 -89.89691 7736 ft 295 kts 95°
2026-05-05 11:30 34.92683 -89.87199 8621 ft 300 kts 95°
2026-05-05 11:30 34.92583 -89.84645 9365 ft 309 kts 95°
2026-05-05 11:30 34.92467 -89.82041 10227 ft 312 kts 95°
2026-05-05 11:30 34.92340 -89.79359 10833 ft 327 kts 95°
2026-05-05 11:31 34.92203 -89.76531 11336 ft 345 kts 95°
2026-05-05 11:31 34.92059 -89.73550 11860 ft 362 kts 95°
2026-05-05 11:31 34.91907 -89.70433 12426 ft 378 kts 95°
2026-05-05 11:31 34.91749 -89.67189 13017 ft 393 kts 95°
2026-05-05 11:32 34.91583 -89.63814 13619 ft 408 kts 94°
2026-05-05 11:32 34.91538 -89.60316 14267 ft 421 kts 91°
2026-05-05 11:32 34.91554 -89.56724 15034 ft 430 kts 90°
2026-05-05 11:32 34.91566 -89.53077 15911 ft 436 kts 90°
2026-05-05 11:33 34.91572 -89.49383 16760 ft 441 kts 90°
2026-05-05 11:33 34.91574 -89.45639 17505 ft 449 kts 90°
2026-05-05 11:33 34.91572 -89.41835 18304 ft 454 kts 90°
2026-05-05 11:33 34.91566 -89.37985 19044 ft 460 kts 90°
2026-05-05 11:34 34.91559 -89.34070 19729 ft 467 kts 90°
2026-05-05 11:34 34.91549 -89.30095 20378 ft 475 kts 90°
2026-05-05 11:34 34.91537 -89.26050 20990 ft 482 kts 89°
2026-05-05 11:34 34.91436 -89.21966 21678 ft 487 kts 95°
2026-05-05 11:35 34.90896 -89.17882 22290 ft 494 kts 101°
2026-05-05 11:35 34.90181 -89.13774 22834 ft 501 kts 102°
2026-05-05 11:35 34.89464 -89.09610 23403 ft 508 kts 101°
2026-05-05 11:35 34.88750 -89.05393 24019 ft 513 kts 101°
2026-05-05 11:36 34.88028 -89.01135 24591 ft 519 kts 101°
2026-05-05 11:36 34.87297 -88.96829 25128 ft 525 kts 101°
2026-05-05 11:36 34.86554 -88.92467 25715 ft 531 kts 101°
2026-05-05 11:36 34.85802 -88.88069 26316 ft 535 kts 100°
2026-05-05 11:37 34.85043 -88.83630 26891 ft 541 kts 100°
2026-05-05 11:37 34.84273 -88.79141 27408 ft 547 kts 100°
2026-05-05 11:37 34.83492 -88.74604 27974 ft 553 kts 100°
2026-05-05 11:37 34.82702 -88.70022 28528 ft 558 kts 99°
2026-05-05 11:38 34.81902 -88.65388 29024 ft 565 kts 100°
2026-05-05 11:38 34.81091 -88.60709 29612 ft 569 kts 99°
2026-05-05 11:38 34.80277 -88.56022 30370 ft 568 kts 99°
2026-05-05 11:38 34.79460 -88.51333 30970 ft 571 kts 98°
2026-05-05 11:39 34.78634 -88.46599 31367 ft 577 kts 97°
2026-05-05 11:39 34.77802 -88.41838 31883 ft 579 kts 98°
2026-05-05 11:39 34.76963 -88.37061 32423 ft 581 kts 96°
2026-05-05 11:39 34.76116 -88.32240 32877 ft 584 kts 98°
2026-05-05 11:40 34.75050 -88.27451 33174 ft 594 kts 106°
2026-05-05 11:40 34.73476 -88.22779 33430 ft 604 kts 114°
2026-05-05 11:40 34.71391 -88.18349 34003 ft 607 kts 123°
2026-05-05 11:40 34.68864 -88.14273 34729 ft 604 kts 132°
2026-05-05 11:41 34.65958 -88.10571 34910 ft 604 kts 140°
2026-05-05 11:41 34.59214 -88.04568 34937 ft 593 kts 154°
2026-05-05 11:42 34.52151 -87.99381 34943 ft 588 kts 154°
2026-05-05 11:42 34.45072 -87.94157 34954 ft 590 kts 154°
2026-05-05 11:43 34.38058 -87.88950 34953 ft 590 kts 153°
2026-05-05 11:43 34.31073 -87.83752 34962 ft 589 kts 154°
2026-05-05 11:44 34.24091 -87.78554 34968 ft 590 kts 154°
2026-05-05 11:44 34.17089 -87.73341 34977 ft 589 kts 154°
2026-05-05 11:45 34.10106 -87.68150 34987 ft 589 kts 154°
2026-05-05 11:45 34.03116 -87.62961 34998 ft 590 kts 153°
2026-05-05 11:46 33.96124 -87.57779 35003 ft 590 kts 154°
2026-05-05 11:46 33.89147 -87.52616 35003 ft 589 kts 154°
2026-05-05 11:47 33.82182 -87.47471 34994 ft 587 kts 153°
2026-05-05 11:47 33.75191 -87.42320 34999 ft 590 kts 154°
2026-05-05 11:48 33.64708 -87.34610 35005 ft 589 kts 154°
2026-05-05 11:48 33.57723 -87.29485 34982 ft 588 kts 154°
2026-05-05 11:49 33.50716 -87.24355 34990 ft 590 kts 155°
2026-05-05 11:49 33.43698 -87.19227 34997 ft 590 kts 154°
2026-05-05 11:50 33.36704 -87.14124 35000 ft 588 kts 155°
2026-05-05 11:50 33.29714 -87.09035 35011 ft 588 kts 154°
2026-05-05 11:51 33.22740 -87.03966 35017 ft 588 kts 154°
2026-05-05 11:51 33.15727 -86.98882 35014 ft 590 kts 154°
2026-05-05 11:52 33.08698 -86.93793 35018 ft 590 kts 154°
2026-05-05 11:52 33.01657 -86.88705 35013 ft 589 kts 154°
2026-05-05 11:53 32.94675 -86.83668 35027 ft 587 kts 154°
2026-05-05 11:53 32.87665 -86.78624 35007 ft 587 kts 153°
2026-05-05 11:54 32.80631 -86.73570 35011 ft 590 kts 154°
2026-05-05 11:54 32.73610 -86.68534 35017 ft 588 kts 153°
2026-05-05 11:55 32.66608 -86.63521 35018 ft 586 kts 153°
2026-05-05 11:55 32.59596 -86.58512 35023 ft 587 kts 154°
2026-05-05 11:56 32.52590 -86.53515 35029 ft 588 kts 153°
2026-05-05 11:56 32.45595 -86.48536 35026 ft 585 kts 153°
2026-05-05 11:57 32.38569 -86.43544 35030 ft 588 kts 153°
2026-05-05 11:57 32.31567 -86.38577 35029 ft 585 kts 153°
2026-05-05 11:58 32.24524 -86.33590 35018 ft 588 kts 153°
2026-05-05 11:58 32.18016 -86.27700 35020 ft 591 kts 141°
2026-05-05 11:59 32.11815 -86.21271 35024 ft 594 kts 141°
2026-05-05 11:59 32.05617 -86.14861 35026 ft 595 kts 141°
2026-05-05 12:00 31.99400 -86.08452 35029 ft 594 kts 141°
2026-05-05 12:00 31.93154 -86.02034 35041 ft 596 kts 141°
2026-05-05 12:01 31.86912 -85.95634 35020 ft 591 kts 141°
2026-05-05 12:01 31.80671 -85.89250 35027 ft 593 kts 141°
2026-05-05 12:02 31.74750 -85.82519 35042 ft 594 kts 133°
2026-05-05 12:02 31.69202 -85.75296 35048 ft 594 kts 132°
2026-05-05 12:03 31.63675 -85.68100 35061 ft 593 kts 133°
2026-05-05 12:03 31.58141 -85.60917 35066 ft 594 kts 133°
2026-05-05 12:04 31.52603 -85.53746 35070 ft 592 kts 132°
2026-05-05 12:04 31.47079 -85.46609 35075 ft 593 kts 133°
2026-05-05 12:05 31.41532 -85.39458 35081 ft 594 kts 132°
2026-05-05 12:05 31.35987 -85.32323 35061 ft 592 kts 133°
2026-05-05 12:06 31.30448 -85.25209 35068 ft 594 kts 133°
2026-05-05 12:06 31.24882 -85.18075 35073 ft 594 kts 133°
2026-05-05 12:07 31.19319 -85.10960 35074 ft 593 kts 132°
2026-05-05 12:07 31.13761 -85.03862 35076 ft 591 kts 133°
2026-05-05 12:08 31.08211 -84.96788 35079 ft 592 kts 133°
2026-05-05 12:08 31.02653 -84.89719 35084 ft 592 kts 133°
2026-05-05 12:09 30.97078 -84.82640 35084 ft 591 kts 132°
2026-05-05 12:09 30.91520 -84.75596 35089 ft 592 kts 132°
2026-05-05 12:10 30.85945 -84.68543 35070 ft 591 kts 133°
2026-05-05 12:10 30.80365 -84.61498 35072 ft 591 kts 133°
2026-05-05 12:11 30.74754 -84.54426 35075 ft 593 kts 132°
2026-05-05 12:11 30.69171 -84.47401 35075 ft 591 kts 132°
2026-05-05 12:12 30.63590 -84.40393 35077 ft 591 kts 133°
2026-05-05 12:12 30.58005 -84.33392 35063 ft 592 kts 133°
2026-05-05 12:13 30.52410 -84.26393 35058 ft 590 kts 133°
2026-05-05 12:13 30.46820 -84.19411 35055 ft 593 kts 133°
2026-05-05 12:14 30.41217 -84.12427 35052 ft 590 kts 133°
2026-05-05 12:14 30.35028 -84.06304 35053 ft 586 kts 150°
2026-05-05 12:15 30.28039 -84.01488 35055 ft 584 kts 154°
2026-05-05 12:15 30.21013 -83.96803 35059 ft 583 kts 154°
2026-05-05 12:16 30.13991 -83.92140 35059 ft 582 kts 153°
2026-05-05 12:16 30.06935 -83.87468 35064 ft 583 kts 154°
2026-05-05 12:17 29.99873 -83.82803 35064 ft 582 kts 154°
2026-05-05 12:17 29.92850 -83.78172 35066 ft 580 kts 154°
2026-05-05 12:18 29.85813 -83.73543 35047 ft 583 kts 154°
2026-05-05 12:18 29.78771 -83.68917 35047 ft 578 kts 153°
2026-05-05 12:19 29.71731 -83.64302 35046 ft 583 kts 153°
2026-05-05 12:19 29.64694 -83.59695 35051 ft 579 kts 154°
2026-05-05 12:20 29.57668 -83.55104 35048 ft 579 kts 153°
2026-05-05 12:20 29.50672 -83.50539 35051 ft 577 kts 153°
2026-05-05 12:21 29.43640 -83.45960 35055 ft 581 kts 153°
2026-05-05 12:21 29.36641 -83.41406 35057 ft 576 kts 154°
2026-05-05 12:22 29.29632 -83.36857 35061 ft 581 kts 154°
2026-05-05 12:22 29.22482 -83.32636 35048 ft 576 kts 160°
2026-05-05 12:23 29.15157 -83.28915 35045 ft 574 kts 161°
2026-05-05 12:23 29.07847 -83.25216 35049 ft 575 kts 161°
2026-05-05 12:24 29.00529 -83.21516 35051 ft 574 kts 161°
2026-05-05 12:24 28.93212 -83.17822 35054 ft 576 kts 161°
2026-05-05 12:25 28.85891 -83.14129 35036 ft 577 kts 161°
2026-05-05 12:25 28.78559 -83.10435 35036 ft 575 kts 161°
2026-05-05 12:26 28.71266 -83.06766 35039 ft 573 kts 161°
2026-05-05 12:26 28.63950 -83.03093 35040 ft 575 kts 161°
2026-05-05 12:27 28.56592 -82.99403 35037 ft 574 kts 160°
2026-05-05 12:27 28.49286 -82.95744 35041 ft 570 kts 160°
2026-05-05 12:28 28.42008 -82.92106 35039 ft 573 kts 160°
2026-05-05 12:28 28.34713 -82.88463 35044 ft 570 kts 160°
2026-05-05 12:29 28.27477 -82.84856 35047 ft 570 kts 161°
2026-05-05 12:29 28.20181 -82.81226 35045 ft 569 kts 160°
2026-05-05 12:30 28.12937 -82.77624 35054 ft 565 kts 160°
2026-05-05 12:30 28.05674 -82.74022 35056 ft 570 kts 160°
2026-05-05 12:31 27.98222 -82.71227 35061 ft 559 kts 174°
2026-05-05 12:31 27.90597 -82.69666 35062 ft 555 kts 176°
2026-05-05 12:32 27.82971 -82.68161 35039 ft 554 kts 176°
2026-05-05 12:32 27.75357 -82.66662 35040 ft 556 kts 176°
2026-05-05 12:33 27.67726 -82.65159 35040 ft 552 kts 176°
2026-05-05 12:33 27.60117 -82.63667 35041 ft 557 kts 176°
2026-05-05 12:34 27.52495 -82.62169 35039 ft 553 kts 176°
2026-05-05 12:34 27.44953 -82.60067 35041 ft 561 kts 169°
2026-05-05 12:35 27.37417 -82.57779 35045 ft 560 kts 170°
2026-05-05 12:35 27.29877 -82.55523 35034 ft 559 kts 170°
2026-05-05 12:36 27.22359 -82.53305 35022 ft 560 kts 170°
2026-05-05 12:36 27.14783 -82.51103 35026 ft 560 kts 170°
2026-05-05 12:37 27.07232 -82.48941 35034 ft 559 kts 171°
2026-05-05 12:37 26.99809 -82.46703 35034 ft 544 kts 165°
2026-05-05 12:38 26.96194 -82.45312 35048 ft 555 kts 165°
2026-05-05 12:38 26.92537 -82.43787 35052 ft 566 kts 159°
2026-05-05 12:38 26.85838 -82.39263 34639 ft 560 kts 141°
2026-05-05 12:39 26.82856 -82.36453 33678 ft 565 kts 139°
2026-05-05 12:39 26.79871 -82.33547 32541 ft 573 kts 140°